GFSSE_850_dewp_024.txt.gz
Dewpoint
12 11 10 10 10 10 10 10 10 10 11 11 11 11 11 10 10 10 9 9 9 9 8 8 8 7 7 6 4 2 1 1 4 7 7 6 5 8 6 4 7 10 8
11 11 11 11 11 10 11 11 10 10 11 11 10 9 8 7 6 5 5 5 5 3 1 -1 -2 -3 -3 -3 -3 -3 -3 -1 5 7 7 6 7 8 9 7 7 10 7
11 11 11 11 11 11 11 9 9 8 7 7 4 2 1 0 -1 -1 -1 -2 -2 -2 -3 -4 -6 -9 -9 -7 -5 -3 -1 3 5 7 7 9 9 10 10 9 4 -2 2
11 11 11 11 11 10 5 3 1 1 0 -1 -1 -2 -2 -2 -3 -2 -4 -4 -4 -5 -10 -13 -13 -12 -10 -6 -4 -1 0 3 7 7 7 9 10 10 9 6 6 5 3
10 10 10 10 3 -3 -4 -4 -3 -2 -2 -1 -2 -2 -2 -2 -3 -6 -6 -4 -4 -9 -13 -14 -13 -14 -13 -13 -13 -12 -6 1 2 6 7 9 9 9 8 8 7 8 5
9 9 3 -5 -6 -5 -5 -4 -3 -2 -2 -2 -2 -2 -2 -2 -6 -7 -4 -3 -5 -8 -10 -11 -10 -9 -9 -10 -11 -12 -10 -9 2 5 9 9 9 9 9 8 9 9 7
0 -6 -5 -5 -5 -5 -5 -4 -4 -5 -4 -3 -1 -1 -2 -5 -6 -5 -4 -3 -5 -6 -7 -7 -7 -7 -8 -8 -9 -9 -11 -9 -2 9 9 9 10 9 9 8 8 9 9
-7 -5 -4 -4 -5 -7 -9 -11 -12 -8 -4 -3 -3 -5 -6 -1 1 -0 -1 -0 -1 -0 -2 -2 -1 -1 -2 -5 -6 -3 -4 -8 1 9 8 7 7 7 7 6 7 8 8
-4 -3 -2 -0 -1 -8 -16 -18 -12 -9 -8 -7 -5 0 2 1 1 3 3 4 3 1 2 3 1 0 0 0 1 1 1 2 6 6 6 6 6 7 7 7 7 4 5
3 6 5 3 2 -2 -8 -12 -9 -5 -2 1 2 6 5 5 4 4 4 4 3 4 2 1 -1 -1 0 2 2 1 1 4 6 5 4 3 4 5 5 5 3 -2 3
8 8 7 3 4 6 7 6 6 5 5 3 4 6 4 2 4 3 2 2 2 2 2 1 -0 0 0 1 1 -0 0 -0 3 3 3 3 2 3 3 2 2 -1 -7
8 8 8 1 5 6 7 8 8 8 7 7 7 4 0 4 6 5 3 -0 -1 -1 -0 1 1 1 0 -0 -0 1 1 0 -1 -2 -1 1 1 2 3 2 1 -1 -10
8 8 8 4 4 6 6 8 8 8 8 8 8 7 1 2 2 -1 -2 -3 -2 0 1 1 1 2 1 1 2 2 2 1 0 -0 -2 -4 -0 -0 -0 -0 -1 -2 -9
8 8 9 1 -1 5 7 7 7 7 7 8 9 6 -1 0 1 -2 -2 -1 0 1 1 1 2 2 2 -0 1 3 3 4 4 2 1 -0 -2 -3 -2 -1 -3 -2 -6
8 9 8 0 6 4 6 6 7 7 7 7 8 4 1 -2 -1 -1 1 2 2 2 3 4 4 4 3 -1 2 3 3 3 4 4 4 3 2 1 -1 -3 -3 -3 -4
8 9 8 6 -1 5 3 4 3 6 8 8 6 4 4 3 2 2 2 2 2 1 1 1 2 2 -1 -1 -1 1 3 4 4 4 4 4 3 3 2 0 -2 -4 -5
7 8 8 7 5 4 8 6 3 5 6 6 5 4 4 4 4 3 3 3 2 0 -1 -1 -1 -1 -1 -2 -1 1 3 3 3 4 4 4 4 3 3 2 0 -1 -2
5 8 8 8 8 6 6 7 5 4 5 4 4 5 4 5 4 4 4 3 1 0 1 0 -0 -2 -2 -2 -2 -2 -1 -0 1 -3 -4 -0 2 2 3 2 1 0 -0
6 8 8 9 8 7 7 7 5 5 5 4 5 3 4 5 5 4 3 2 1 1 1 1 -1 -3 -5 -7 -8 -9 -11 -12 -10 -8 -7 -8 -7 -1 2 3 2 1 0
8 9 9 8 7 8 7 6 6 6 4 3 2 3 3 2 2 2 1 1 1 1 0 -2 -3 -4 -8 -7 -7 -9 -11 -11 -12 -10 -5 -2 2 2 3 3 4 3 1
10 10 9 9 8 7 5 4 4 2 1 1 2 2 2 2 2 2 2 1 1 -1 -2 -2 -3 -6 -7 -8 -9 -7 -6 -6 -1 -2 -2 2 1 0 2 3 4 4 2
4 4 3 3 3 2 1 1 1 1 1 2 2 2 2 2 1 1 1 0 -0 -1 -2 -3 -9 -10 -8 -2 1 0 1 -1 -0 -0 -1 -1 -1 -0 0 1 2 3 4
2 1 1 1 2 1 1 1 1 1 0 1 1 1 0 0 1 1 0 -0 -2 -6 -10 -8 -4 -1 1 -1 -1 -2 -1 -1 -2 -3 -4 -3 -2 -1 -1 0 1 2 3
-0 0 -0 -0 1 1 2 2 2 1 1 1 2 2 1 2 1 0 -4 -12 -13 -12 -6 -2 0 -2 -2 -2 -4 -4 -4 -3 -1 -2 -3 -4 -6 -6 -6 -6 -4 -2 1
2 2 2 1 1 1 2 2 2 2 2 2 2 2 2 1 -2 -8 -11 -9 -7 -9 -7 -4 -4 -6 -2 -2 -1 -2 -3 -4 -4 -4 -3 -3 -6 -8 -8 -6 -6 -5 -4
2 2 3 3 3 3 3 2 2 2 2 2 2 1 0 -1 -7 -9 -6 -5 -6 -9 -3 -3 -3 -3 -2 -4 -4 -5 -5 -3 -3 -3 -3 -4 -3 -5 -7 -7 -7 -5 -3

GFSSE_850_dewp_030.txt.gz
Dewpoint
13 13 12 12 11 10 10 10 9 10 10 10 9 9 8 7 6 4 2 0 -2 -3 -4 -4 -4 -4 -4 -3 -3 -4 -4 -3 -2 -0 3 4 6 5 8 7 1 9 9
12 13 12 12 11 10 9 9 9 10 10 8 6 3 -1 -3 -4 -4 -5 -6 -7 -7 -9 -12 -13 -12 -9 -7 -5 -5 -4 -2 1 4 3 5 6 6 8 10 5 4 8
12 12 12 11 11 10 10 9 8 7 4 0 -2 -4 -5 -4 -4 -8 -9 -7 -9 -14 -15 -16 -16 -15 -14 -13 -12 -6 -1 -0 2 5 6 6 7 9 10 9 8 7 4
12 12 12 11 11 10 8 6 2 -1 -3 -4 -4 -5 -5 -5 -10 -9 -6 -7 -11 -12 -12 -10 -10 -10 -12 -13 -13 -12 -8 -1 2 5 6 6 8 9 8 8 8 7 6
12 12 12 11 11 8 1 -5 -4 -3 -4 -4 -5 -5 -4 -11 -11 -8 -7 -8 -8 -9 -9 -8 -8 -8 -8 -9 -10 -11 -10 -9 -1 3 6 8 8 8 9 8 8 6 9
12 13 12 11 5 -3 -5 -4 -3 -4 -5 -6 -5 -5 -10 -10 -8 -6 -6 -6 -5 -5 -4 -3 -2 -2 -3 -6 -4 -4 -8 -9 -4 2 6 8 9 8 8 8 9 8 9
13 12 11 2 -4 -5 -4 -5 -7 -9 -7 -6 -6 -9 -5 -4 -3 -1 -1 -2 -2 0 -1 -3 -3 -1 1 1 1 1 1 -3 -0 6 8 9 9 7 6 6 7 4 6
12 7 -3 -4 -4 -6 -7 -11 -13 -10 -8 -9 -6 -1 -1 -1 -2 -3 -5 -5 -4 -4 -5 -4 -4 -4 -3 -2 -1 -1 -1 1 3 5 7 7 7 5 5 6 7 6 4
1 -5 -4 -5 -8 -12 -15 -15 -11 -10 -8 -4 0 0 0 -1 -3 -3 -4 -4 -4 -3 -3 -3 -3 -2 -2 -2 -2 -2 -2 -1 -2 1 4 4 4 5 5 6 6 5 2
-3 -4 -4 -8 -15 -18 -16 -12 -10 -7 -3 2 2 1 0 -1 -2 -2 -3 -3 -2 -2 -1 -0 0 0 -0 -1 -1 -1 -0 -1 -1 -2 -2 -3 -2 -0 1 0 2 2 2
-1 0 -2 -6 -12 -14 -12 -8 -3 -0 0 1 1 0 2 1 1 -0 -1 -1 -0 1 1 2 2 3 2 1 -0 -1 -1 -1 -1 -1 -0 -0 -1 -3 -3 -0 0 1 0
4 1 0 3 1 2 2 2 2 1 1 3 2 -0 1 2 1 1 0 0 1 2 2 2 2 2 2 1 1 -1 -1 -1 -1 -2 -2 -0 2 2 2 -0 -3 -3 -2
6 5 -0 3 5 6 6 5 4 3 4 5 5 3 -0 2 2 1 1 1 2 2 2 2 2 1 1 0 -0 -1 -1 -1 -1 -0 0 -1 -0 3 3 3 2 2 -1
6 6 1 4 5 6 7 6 6 5 5 7 6 5 3 -1 1 0 1 1 1 2 2 2 1 1 0 0 0 -0 -1 -2 -2 -1 1 3 2 1 3 3 3 3 3
7 7 5 4 5 6 7 8 7 7 8 8 8 8 5 3 2 2 3 2 3 3 3 2 1 0 0 1 1 0 -1 -4 -4 -3 1 3 4 4 3 3 2 3 3
7 8 7 5 7 7 8 8 8 8 8 9 9 8 7 5 4 4 5 5 5 4 3 2 2 1 1 1 0 -1 -3 -5 -7 -8 -8 -6 -1 2 3 3 3 2 3
7 8 8 6 8 8 8 7 7 7 8 9 8 9 8 6 5 6 6 6 5 4 3 2 1 1 1 0 -0 -2 -4 -5 -7 -8 -8 -10 -11 -11 -9 -10 -7 -1 3
6 8 9 8 8 7 8 8 7 7 7 7 7 8 7 6 6 6 6 4 3 2 1 1 1 0 -0 -1 -2 -4 -5 -8 -13 -13 -10 -7 -7 -7 -8 -6 -4 -3 -4
5 7 9 9 9 9 7 8 7 7 8 6 5 6 5 5 5 4 3 2 1 1 0 -0 -1 -2 -3 -5 -8 -12 -14 -17 -16 -14 -9 -4 -1 -1 -1 -0 -1 -0 1
4 6 10 9 9 9 9 8 7 5 5 5 4 4 4 3 2 2 1 1 1 1 0 -4 -9 -13 -18 -20 -20 -20 -20 -20 -17 -7 -7 -8 -5 -4 -4 -3 -1 -1 0
8 9 10 10 9 8 8 6 6 6 4 2 2 1 0 -0 -1 -0 0 1 1 -2 -9 -16 -19 -20 -23 -25 -22 -24 -25 -13 -8 -16 -5 -5 -13 -13 -13 -13 -12 -12 -6
10 10 8 8 6 5 4 3 2 1 1 1 1 -0 -0 0 1 2 1 -2 -8 -15 -17 -18 -20 -20 -20 -18 -12 -12 -8 -9 -7 -9 -12 -9 -9 -8 -10 -10 -9 -10 -11
5 3 2 1 1 -0 -1 -1 -1 -1 -1 -0 0 1 1 2 0 -4 -9 -14 -15 -15 -17 -20 -22 -22 -20 -18 -11 -7 -4 -4 -3 -5 -7 -8 -8 -8 -9 -9 -8 -8 -9
-1 -0 0 0 0 1 1 1 1 1 1 1 1 1 2 -4 -8 -9 -6 -9 -13 -13 -14 -17 -19 -15 -11 -8 -8 -8 -7 -5 -3 -4 -4 -5 -6 -8 -8 -6 -6 -7 -7
2 2 2 2 2 2 2 2 2 2 2 2 2 0 -4 -7 -6 -8 -7 -7 -9 -8 -8 -10 -14 -15 -11 -11 -10 -9 -9 -8 -6 -5 -5 -4 -4 -5 -7 -7 -6 -7 -6
2 2 3 3 3 2 2 2 2 2 1 0 -2 -6 -7 -6 -6 -8 -8 -7 -6 -6 -5 -9 -13 -13 -11 -10 -10 -10 -9 -8 -6 -5 -4 -5 -6 -8 -8 -9 -6 -6 -7

GFSSE_850_dewp_033.txt.gz
Dewpoint
13 13 13 12 12 11 10 10 10 10 10 10 10 9 8 6 5 2 -1 -4 -5 -5 -6 -7 -7 -7 -7 -7 -7 -7 -6 -5 -4 -2 1 3 4 5 7 9 5 8 8
12 13 12 12 11 11 10 10 10 10 10 9 7 2 -2 -4 -4 -4 -6 -7 -9 -13 -16 -16 -15 -14 -12 -11 -10 -7 -5 -4 -4 -2 1 5 6 6 9 9 8 6 6
12 12 12 12 11 10 10 10 10 9 7 2 -3 -4 -4 -4 -9 -8 -7 -12 -14 -14 -12 -12 -12 -12 -12 -13 -12 -12 -6 -3 -1 1 4 6 9 9 10 9 8 7 6
12 12 12 11 10 11 10 9 7 2 -3 -4 -4 -5 -6 -11 -8 -7 -9 -10 -10 -10 -9 -9 -9 -9 -9 -9 -10 -11 -10 -8 -2 3 6 8 9 9 8 8 8 7 8
12 11 11 11 11 10 8 3 -2 -3 -4 -5 -5 -6 -12 -9 -7 -7 -8 -8 -7 -6 -4 -4 -3 -3 -5 -6 -5 -6 -9 -10 -6 1 7 8 9 9 9 9 9 9 9
12 12 12 11 11 7 -1 -2 -4 -5 -7 -6 -6 -11 -8 -6 -6 -5 -4 -2 -1 -2 -4 -4 -2 -1 -1 -1 -2 -2 -2 -4 -7 1 6 9 10 9 8 7 8 7 7
12 12 12 11 5 -0 -2 -4 -6 -7 -6 -5 -8 -6 -4 -2 -1 -2 -2 -2 -5 -5 -5 -4 -4 -4 -4 -4 -4 -4 -3 -1 1 2 6 7 8 8 5 4 5 6 6
12 12 10 3 -1 -3 -3 -6 -8 -7 -6 -7 -2 -1 -0 -1 -3 -3 -3 -3 -5 -5 -4 -3 -3 -2 -2 -2 -3 -4 -5 -5 -4 -1 2 4 5 5 5 5 6 5 5
12 8 -0 -3 -3 -2 -5 -8 -8 -7 -6 -0 -0 0 -1 -1 -3 -3 -3 -4 -4 -4 -3 -3 -2 -2 -2 -2 -2 -2 -2 -2 -4 -5 -4 -4 -2 -0 0 1 0 2 2
5 -2 -3 -5 -5 -7 -10 -8 -8 -7 -0 1 2 1 -0 -1 -2 -3 -3 -3 -2 -2 -1 -1 -1 -1 -1 -0 -1 -2 -2 -1 -2 -2 -3 -5 -5 -5 -5 -4 -2 0 1
-3 -4 -5 -9 -11 -13 -9 -8 -6 -2 2 1 1 1 1 -0 -1 -3 -2 -2 -0 1 1 1 1 1 1 1 0 -0 -1 -1 -1 -1 -1 -1 -2 -3 -4 -4 -4 -4 -4
-2 -1 -4 -11 -13 -11 -8 -4 -1 1 2 2 1 1 2 2 0 -0 -1 0 1 1 2 3 3 2 1 0 0 0 0 -0 -1 -1 -2 -1 -1 -0 -1 -1 -2 -2 -3
2 0 0 -3 -2 -1 1 3 4 3 5 6 5 2 3 4 3 3 2 1 1 2 2 2 2 1 0 0 1 1 1 -0 -2 -3 -4 -2 -0 0 1 2 2 1 1
4 2 3 4 6 6 6 7 7 6 7 8 8 7 5 5 5 3 3 3 2 2 2 2 2 1 0 1 1 1 1 -0 -2 -5 -6 -6 -3 -0 2 2 2 2 2
6 5 2 6 7 7 8 8 8 8 9 9 10 9 7 5 5 4 4 4 4 3 4 3 3 2 1 1 1 1 0 -0 -1 -4 -6 -7 -8 -7 -2 2 2 1 1
7 7 4 6 7 7 8 8 8 9 9 9 9 8 8 7 5 5 5 5 5 5 5 3 2 1 1 1 0 -1 -1 -3 -4 -6 -7 -9 -9 -8 -10 -10 -6 -2 -1
7 8 8 5 7 8 8 9 8 7 8 8 8 7 7 8 6 6 6 6 5 3 2 1 1 0 -1 -3 -5 -6 -8 -9 -11 -13 -14 -14 -12 -9 -7 -8 -10 -8 -7
6 8 8 8 8 9 8 8 8 6 7 7 7 7 8 7 6 6 5 3 2 1 1 1 -1 -4 -8 -12 -16 -19 -21 -22 -22 -22 -18 -12 -9 -7 -5 -4 -4 -5 -6
5 7 9 9 9 8 7 6 8 7 8 7 7 6 5 5 4 3 2 1 1 0 -1 -4 -10 -15 -19 -21 -22 -22 -24 -27 -28 -27 -19 -8 -9 -11 -10 -8 -7 -5 -3
5 5 8 10 9 8 6 8 7 7 5 5 5 4 3 2 1 0 1 1 0 -3 -11 -16 -18 -19 -20 -21 -23 -23 -25 -24 -17 -11 -10 -14 -8 -9 -16 -17 -17 -17 -17
7 8 9 9 9 8 7 7 5 5 4 2 1 1 0 0 1 2 1 -4 -10 -12 -14 -15 -16 -15 -16 -19 -21 -12 -10 -12 -13 -14 -11 -14 -16 -15 -13 -13 -12 -13 -15
8 9 9 9 5 6 6 4 2 1 0 1 1 1 1 2 1 -2 -6 -9 -9 -8 -10 -12 -12 -13 -15 -20 -19 -6 -7 -8 -4 -12 -15 -7 -9 -11 -11 -11 -8 -9 -11
6 4 4 2 2 2 1 0 0 0 0 0 1 1 2 1 -1 -6 -10 -13 -11 -11 -11 -9 -8 -7 -11 -15 -16 -6 -7 -8 -5 -5 -7 -5 -5 -5 -4 -4 -6 -5 -7
0 0 0 0 0 1 1 1 1 2 2 2 2 2 1 -3 -7 -8 -10 -10 -9 -9 -8 -6 -6 -8 -11 -10 -13 -8 -7 -5 -6 -8 -7 -7 -4 -5 -6 -8 -6 -6 -6
1 1 1 1 1 2 2 2 2 2 2 1 1 -0 -5 -6 -6 -6 -7 -7 -8 -7 -5 -5 -8 -10 -10 -9 -5 -6 -5 -5 -6 -5 -7 -7 -7 -7 -5 -6 -7 -6 -5
1 2 2 2 2 3 2 2 2 1 1 -0 -3 -6 -7 -7 -6 -5 -5 -6 -6 -5 -4 -7 -8 -7 -8 -10 -11 -8 -6 -7 -7 -6 -8 -7 -8 -8 -7 -6 -6 -9 -11

GFSSE_850_dewp_036.txt.gz
Dewpoint
15 13 12 12 11 10 10 9 9 9 9 10 10 9 8 6 4 0 -3 -5 -6 -8 -9 -11 -12 -11 -11 -10 -9 -7 -6 -5 -5 -1 2 5 6 6 8 9 9 11 8
14 13 12 12 11 11 10 10 10 10 10 9 7 3 -2 -5 -5 -6 -8 -9 -13 -16 -17 -16 -15 -15 -15 -14 -13 -11 -6 -3 -0 2 5 9 9 8 10 10 8 7 5
14 13 12 12 11 11 10 10 10 10 8 5 -1 -4 -5 -6 -10 -8 -11 -14 -14 -12 -10 -10 -10 -10 -10 -11 -12 -12 -11 -6 -1 3 6 9 11 9 8 9 8 7 8
13 13 12 11 11 11 10 11 10 8 2 -2 -4 -4 -8 -9 -7 -10 -10 -10 -9 -8 -7 -6 -6 -6 -7 -7 -7 -8 -10 -11 -5 4 8 9 10 10 9 9 9 8 9
14 14 12 11 11 11 10 10 6 1 -1 -3 -4 -8 -8 -6 -7 -8 -7 -6 -3 -3 -3 -3 -3 -3 -3 -3 -4 -4 -4 -6 -6 6 8 10 10 10 8 8 8 8 8
13 14 11 11 11 10 9 4 2 -0 -3 -3 -7 -8 -6 -6 -6 -4 -2 -1 -4 -5 -4 -4 -4 -5 -6 -7 -7 -8 -7 -5 3 3 5 8 10 8 7 5 5 7 6
14 14 11 12 11 8 4 2 -1 -3 -3 -5 -7 -5 -4 -2 -2 -2 -3 -5 -4 -4 -4 -4 -5 -5 -4 -3 -3 -3 -5 -7 -0 1 2 4 5 4 4 4 6 6 6
12 13 12 11 8 4 1 -2 -5 -3 -4 -6 -3 -1 -1 -2 -3 -3 -4 -4 -4 -3 -3 -3 -3 -2 -2 -2 -2 -2 -2 -2 3 2 0 0 -4 -2 -0 -0 1 1 2
12 13 12 9 4 2 -1 -5 -4 -3 -4 0 -0 -0 -1 -3 -2 -3 -3 -3 -3 -2 -2 -1 -1 -1 -1 -1 -1 -1 -1 -1 4 4 3 3 -4 -6 -6 -5 -4 -2 -1
12 12 11 11 9 -1 -6 -4 -3 -3 2 1 2 0 0 -1 -3 -3 -2 -2 -2 -0 -0 -0 -0 -0 -0 -0 -0 -0 0 3 3 3 3 1 -2 -2 -4 -4 -4 -4 -3
12 11 11 10 10 8 6 -3 -2 2 4 3 3 2 2 8 3 3 -1 -1 -1 0 0 0 -0 -0 -0 1 0 1 2 3 3 2 1 -4 -5 -3 -2 -2 -3 -2 -1
9 7 -0 -3 -5 -6 5 -1 -1 5 8 9 8 5 9 5 7 7 -0 -0 1 1 1 1 0 0 1 2 2 2 2 1 1 1 0 -3 -6 -6 -5 -3 -1 -1 -0
9 8 6 -9 -9 -4 3 6 9 9 7 6 5 7 6 6 5 8 3 2 2 2 3 3 3 2 2 1 1 2 2 1 0 -0 -1 -2 -4 -6 -7 -5 -3 -1 1
8 7 -1 -9 -6 -3 6 8 6 9 8 10 8 6 6 7 5 4 3 2 3 3 3 3 3 3 2 2 2 2 1 1 1 0 -0 -2 -6 -6 -7 -7 -4 -2 -1
7 7 3 0 2 3 6 7 8 8 10 9 9 8 8 6 6 5 4 4 5 4 4 4 3 3 2 2 1 0 -1 0 0 -0 -1 -1 -9 -11 -10 -9 -9 -8 -4
7 8 6 6 5 6 7 8 8 9 9 9 9 7 7 8 7 6 6 6 6 5 4 3 2 1 1 1 -0 -0 -4 -2 -2 -2 -4 -2 -6 -13 -13 -12 -10 -9 -9
8 9 8 6 7 7 7 8 8 7 7 7 7 7 7 8 8 6 6 6 4 2 1 1 -0 -1 -1 -2 -4 -5 -3 -4 -4 -2 -3 -2 -3 -3 -13 -14 -10 -8 -7
8 10 8 7 8 9 9 8 7 4 5 6 8 8 8 7 7 6 4 2 1 1 -1 -3 -3 -4 -5 -4 -6 -8 -6 -7 -9 -2 -3 -4 -3 -4 -4 -5 -19 -16 -12
8 11 8 9 8 9 8 7 7 5 7 8 7 6 5 4 3 2 1 1 0 -2 -5 -7 -5 -4 -5 -4 -7 -8 -7 -7 -9 -5 -3 -3 -4 -3 -4 -5 -10 -21 -18
10 10 8 9 10 9 7 4 6 7 7 5 5 4 3 2 0 1 1 -1 -4 -5 -5 -11 -8 -5 -6 -4 -7 -7 -7 -6 -5 -4 -4 -6 -6 -5 -5 -5 -4 -6 -6
9 8 7 8 9 9 3 8 7 6 5 4 2 2 2 1 1 1 -2 -4 -7 -5 -13 -10 -7 -6 -6 -4 -6 -9 -9 -6 -3 -4 -6 -7 -6 -4 -5 -5 -5 -4 -5
9 9 7 8 6 6 5 6 5 4 2 2 1 1 1 1 0 -3 -6 -4 -6 -6 -4 -3 -3 -4 -7 -5 -4 -6 -10 -10 -10 -5 -6 -5 -6 -5 -5 -5 -4 -4 -4
10 9 6 7 5 2 2 1 1 1 1 1 1 1 2 0 -4 -5 -7 -9 -7 -4 -5 -3 -3 -3 -5 -6 -5 -5 -6 -9 -8 -8 -8 -7 -6 -5 -5 -6 -5 -5 -5
7 3 8 6 5 1 1 3 2 3 3 3 3 3 0 -4 -6 -9 -10 -9 -4 -3 -2 -3 -4 -2 -3 -5 -5 -6 -5 -5 -6 -7 -8 -8 -9 -9 -8 -8 -7 -7 -7
7 7 6 6 5 3 2 4 4 4 3 3 2 1 -0 -1 -7 -5 -3 -2 -2 -2 -2 -1 -1 -2 -3 -3 -3 -6 -6 -6 -6 -6 -6 -9 -10 -9 -10 -9 -8 -9 -8
5 5 5 4 4 2 3 2 3 3 2 1 -0 -2 -3 -3 -2 -2 -1 -1 -1 -1 -1 -1 -1 -2 -2 -2 -3 -4 -5 -6 -7 -7 -6 -8 -9 -10 -10 -10 -10 -9 -10

GFSSE_850_dewp_039.txt.gz
Dewpoint
14 12 10 9 8 7 8 8 6 6 7 9 10 9 9 7 3 -3 -6 -8 -10 -12 -15 -16 -16 -16 -15 -15 -13 -10 -7 -4 -1 1 5 7 7 8 9 9 12 10 6
15 13 11 10 9 8 8 8 8 9 10 10 9 8 3 -2 -5 -8 -10 -13 -17 -17 -15 -13 -12 -12 -12 -12 -12 -12 -11 -7 -2 1 10 11 9 9 9 9 8 7 6
15 13 11 11 10 10 10 10 10 10 10 8 3 -2 -4 -8 -10 -10 -14 -14 -12 -11 -10 -10 -9 -8 -7 -7 -7 -8 -11 -10 -2 8 8 12 9 7 9 9 8 7 8
14 14 12 11 11 10 10 10 10 10 6 -0 -3 -4 -10 -9 -10 -12 -11 -10 -8 -6 -5 -4 -4 -4 -4 -5 -5 -5 -5 -4 5 8 8 9 11 8 8 8 8 8 9
14 14 13 11 11 11 11 11 9 5 -1 -3 -4 -9 -8 -8 -9 -9 -7 -4 -4 -5 -5 -4 -5 -6 -8 -8 -9 -8 -6 2 3 4 7 9 10 8 7 5 4 5 6
13 13 11 12 11 11 10 9 4 0 -3 -4 -7 -8 -6 -7 -6 -4 -3 -5 -7 -6 -7 -7 -7 -6 -4 -4 -4 -4 -6 -1 -1 1 3 6 3 3 4 4 4 5 5
13 12 11 12 11 10 8 4 1 -2 -3 -4 -8 -5 -5 -3 -1 -3 -6 -6 -5 -5 -5 -4 -4 -3 -3 -3 -2 -2 -2 1 2 1 -1 2 -5 -5 -3 -1 0 1 2
13 12 12 11 10 7 4 1 -1 -2 -3 -7 -4 -2 -1 -2 -2 -5 -4 -4 -4 -3 -3 -2 -2 -2 -2 -2 -1 -1 -1 -1 4 3 3 4 -2 -3 -5 -6 -5 -4 -2
13 13 12 10 9 4 2 -0 -2 -2 -5 -2 1 1 -2 -2 -2 -3 -2 -3 -2 -2 -1 -1 -1 -2 -1 -1 -1 0 1 2 3 3 2 4 -5 -3 -2 -2 -2 -4 -4
13 12 12 9 4 1 1 -1 -2 -4 1 2 2 1 -1 -1 -1 -1 -2 -2 -1 -0 0 0 -0 -1 -1 0 0 1 1 3 3 2 1 2 -3 -6 -6 -4 -1 -0 -1
11 10 10 10 10 10 9 -2 -3 1 3 4 3 3 6 8 8 6 -0 -1 -0 0 1 1 1 1 1 3 3 2 3 3 2 1 0 0 -1 -4 -5 -6 -6 -2 0
11 10 10 10 9 8 7 -1 -0 5 6 10 9 7 10 10 9 9 0 -0 0 1 2 3 3 3 4 4 3 3 3 4 2 2 0 -0 -0 -2 -5 -6 -6 -6 -3
10 10 10 10 8 7 8 7 8 9 10 10 11 10 10 10 10 9 9 7 8 6 7 6 5 5 5 5 4 4 4 3 2 2 1 1 -0 -4 -8 -7 -7 -7 -6
8 8 8 8 8 8 8 8 9 9 10 10 10 10 10 10 10 10 8 8 7 6 6 6 5 5 5 4 4 3 3 2 2 2 1 0 -1 -6 -11 -12 -11 -10 -9
6 6 7 7 7 7 9 10 10 10 10 9 9 9 9 9 9 9 8 7 7 6 5 5 5 4 4 3 3 2 2 1 1 -1 -1 -2 -3 -4 -8 -12 -13 -12 -11
6 8 8 8 9 9 11 11 10 10 10 11 9 9 7 7 8 9 8 6 5 5 5 4 3 2 1 0 -0 -2 -3 -3 -2 -3 -2 -2 -4 -3 -4 -8 -12 -14 -12
7 9 10 11 10 11 11 10 9 8 5 8 7 7 7 7 8 8 7 6 5 3 1 1 -0 -1 -2 -3 -3 -4 -6 -7 -5 -7 -4 -2 -3 -4 -3 -4 -10 -13 -16
8 10 11 11 9 8 8 8 8 4 5 6 6 8 7 8 7 6 5 3 1 0 0 -1 -2 -3 -3 -4 -4 -5 -8 -7 -6 -6 -7 -3 -3 -3 -4 -4 -5 -11 -14
9 11 10 6 7 8 9 8 7 8 5 6 8 6 5 5 4 2 2 1 -1 -1 -2 -2 -4 -5 -5 -6 -6 -6 -8 -6 -6 -6 -4 -3 -4 -5 -4 -4 -5 -6 -5
9 11 11 10 8 6 8 8 5 5 6 8 6 5 4 2 1 2 1 0 -1 -1 -2 -2 -3 -4 -5 -5 -5 -4 -6 -7 -7 -2 -2 -4 -5 -6 -4 -4 -4 -4 -5
10 11 11 11 9 8 8 6 4 7 8 5 4 3 2 3 2 1 -0 -1 -1 -3 -3 -2 -2 -3 -4 -5 -5 -5 -5 -9 -9 -7 -6 -4 -5 -5 -4 -5 -4 -4 -5
11 11 10 10 9 9 6 7 8 7 5 4 3 3 4 2 1 -1 -0 -1 -2 -3 -3 -3 -2 -2 -3 -5 -5 -5 -6 -7 -8 -7 -6 -7 -7 -6 -6 -5 -6 -6 -5
11 11 12 10 10 9 9 7 6 5 4 4 4 4 3 2 0 -0 -1 -2 -2 -2 -3 -2 -2 -3 -4 -4 -5 -5 -6 -6 -6 -7 -7 -8 -7 -7 -8 -8 -7 -7 -7
11 11 10 9 8 7 5 5 4 3 3 3 3 3 3 2 1 -1 -2 -2 -1 -1 -2 -2 -3 -2 -3 -3 -4 -5 -5 -5 -6 -7 -7 -7 -7 -9 -9 -8 -9 -9 -8
10 9 8 8 6 5 5 4 4 4 4 4 3 3 2 1 -0 -1 -1 -1 -1 -1 -2 -2 -2 -2 -2 -2 -3 -3 -3 -4 -5 -5 -5 -7 -8 -9 -9 -8 -9 -9 -10
8 8 7 6 5 5 5 5 5 5 3 3 2 1 -1 -3 -4 -3 -2 -2 -1 -2 -3 -3 -3 -3 -2 -1 -1 -2 -2 -3 -5 -6 -6 -7 -7 -9 -10 -10 -10 -11 -11

GFSSE_850_dewp_042.txt.gz
Dewpoint
14 9 7 6 10 12 12 12 8 6 7 9 10 9 7 1 -4 -7 -11 -13 -18 -20 -18 -16 -14 -13 -13 -13 -13 -13 -11 -7 -2 7 10 10 8 6 8 9 10 7 5
13 9 8 7 10 11 11 8 6 8 9 10 8 4 -3 -5 -9 -11 -14 -18 -16 -13 -12 -11 -10 -9 -8 -7 -8 -11 -11 -0 5 9 10 11 9 7 7 8 8 7 7
13 10 9 8 9 9 7 7 9 10 10 8 1 -4 -6 -11 -10 -14 -14 -12 -11 -9 -7 -6 -5 -5 -6 -6 -5 -7 -3 7 8 9 11 11 9 8 7 8 8 8 8
12 11 10 9 9 9 9 10 10 10 7 -0 -4 -6 -12 -10 -12 -11 -10 -8 -5 -5 -5 -6 -8 -9 -9 -9 -8 -4 3 4 5 9 10 10 9 7 6 5 3 6 6
13 13 11 11 10 10 10 11 10 6 -1 -3 -5 -11 -8 -10 -10 -8 -5 -5 -7 -6 -8 -8 -8 -6 -5 -5 -6 -3 0 -0 0 6 6 5 3 -1 1 3 3 4 5
13 12 11 11 11 11 11 10 5 -1 -4 -5 -10 -9 -8 -8 -6 -4 -6 -7 -7 -8 -7 -6 -5 -4 -3 -2 -2 -2 -1 2 1 3 2 2 -3 -6 -5 -3 -0 1 2
13 12 11 11 11 11 9 5 -0 -3 -4 -7 -10 -7 -7 -4 -3 -6 -6 -7 -7 -6 -5 -3 -3 -3 -2 -2 -1 -1 -1 3 3 3 4 3 -1 -3 -2 -3 -5 -5 -3
13 11 10 11 11 9 3 2 -1 -3 -4 -8 -6 -5 -2 -2 -5 -6 -5 -5 -5 -4 -2 -2 -2 -2 -2 -2 -1 -1 -0 2 3 2 5 4 0 -6 -6 -3 -2 -2 -3
10 10 11 11 10 5 2 0 -2 -3 -7 -5 -2 -2 -3 -3 -4 -3 -4 -4 -3 -2 -1 -1 -1 -1 -1 1 1 1 2 2 1 2 2 2 1 -2 -4 -6 -5 -3 -1
8 11 11 10 6 2 -0 -3 -2 -5 -3 0 -0 -2 -1 -1 -2 -3 -3 -2 -2 -1 -0 0 0 0 2 4 3 3 3 2 1 1 1 1 -0 -1 -2 -4 -5 -5 -3
12 11 8 5 2 0 -2 -1 -3 -1 1 1 2 5 8 9 8 6 -1 -1 -1 0 1 2 2 3 4 4 4 4 4 3 2 2 2 1 1 0 -1 -6 -7 -6 -5
10 11 11 9 10 8 -2 -2 -1 2 4 4 3 10 10 10 9 9 7 0 1 3 5 6 6 5 5 5 5 4 4 3 2 2 2 2 1 0 -2 -8 -10 -9 -8
11 10 10 9 8 8 5 -1 4 8 10 10 9 10 10 9 9 9 8 8 8 7 7 6 6 6 5 5 4 4 3 2 2 1 1 1 0 -1 -3 -7 -11 -12 -11
10 10 10 9 7 7 6 8 8 10 9 10 9 9 8 8 9 8 8 8 7 7 6 6 5 5 5 4 3 2 1 1 -2 0 -0 -1 -1 -2 -3 -5 -8 -11 -12
8 8 9 6 8 6 9 8 10 10 10 9 8 7 8 9 8 7 7 7 7 6 6 5 5 5 2 0 -1 -1 -2 -3 -4 -2 -3 -3 -2 -3 -3 -3 -4 -6 -10
7 7 7 4 5 9 10 10 9 9 9 8 10 9 9 8 7 9 8 7 6 6 5 3 2 -0 -2 -2 -3 -3 -3 -5 -7 -6 -5 -7 -3 -2 -3 -3 -4 -5 -5
7 7 8 8 10 10 10 8 9 8 8 5 7 6 6 7 8 8 8 7 6 5 1 0 -1 -2 -3 -4 -7 -5 -4 -6 -8 -7 -6 -8 -4 -2 -3 -3 -3 -4 -5
8 9 10 10 10 10 10 9 8 7 4 3 4 4 6 7 8 7 7 6 2 0 -1 -1 -2 -5 -9 -8 -8 -6 -6 -6 -7 -6 -6 -4 -3 -2 -4 -4 -4 -4 -5
8 10 11 11 10 9 8 8 8 6 3 3 2 5 6 6 5 4 3 1 0 -1 -1 -2 -5 -10 -8 -6 -5 -6 -5 -6 -5 -8 -6 -2 -3 -4 -6 -5 -4 -4 -4
10 10 10 10 8 7 7 7 8 7 6 5 4 6 5 3 2 1 1 0 -0 -2 -3 -5 -5 -2 -3 -3 -4 -5 -5 -5 -7 -7 -5 -5 -3 -4 -4 -6 -5 -4 -4
10 10 10 10 9 8 7 8 7 6 4 6 6 5 3 2 1 1 0 -0 -1 -1 -3 -4 -3 -2 -2 -3 -3 -4 -4 -5 -6 -8 -6 -5 -6 -6 -6 -5 -7 -5 -6
10 11 11 10 10 9 9 8 4 6 6 5 4 3 4 3 2 -0 0 0 -1 -4 -7 -3 -3 -3 -2 -3 -3 -4 -4 -5 -5 -6 -6 -7 -7 -7 -7 -6 -8 -8 -8
11 11 10 11 10 9 9 8 7 4 5 5 4 4 4 2 1 0 -1 -1 -3 -3 -2 -2 -2 -2 -2 -3 -5 -3 -3 -4 -4 -5 -6 -8 -8 -7 -9 -8 -8 -7 -9
11 11 10 10 9 10 9 7 5 5 4 4 3 4 4 3 2 1 -1 -2 -1 -1 -2 -2 -2 -3 -3 -2 -3 -3 -3 -3 -3 -4 -5 -7 -8 -7 -8 -8 -9 -8 -9
10 10 11 10 9 8 4 5 4 4 4 3 3 3 3 2 1 -1 -2 -2 -1 -1 -1 -2 -2 -2 -2 -2 -2 -2 -2 -2 -4 -3 -4 -4 -6 -8 -8 -9 -8 -9 -10
11 10 9 8 8 6 5 4 4 5 4 4 3 3 1 -0 -2 -3 -3 -2 -1 -1 -4 -4 -5 -5 -5 -5 -3 -3 -1 -2 -2 -3 -3 -4 -5 -7 -7 -7 -9 -10 -10

GFSSE_850_dewp_045.txt.gz
Dewpoint
7 6 12 14 13 13 12 11 7 6 8 9 7 3 -5 -9 -12 -13 -17 -18 -15 -12 -12 -10 -9 -8 -8 -9 -12 -3 3 8 9 10 11 10 8 8 8 8 8 7 7
9 5 6 11 12 12 12 8 7 8 9 8 2 -6 -8 -14 -13 -16 -14 -12 -11 -9 -7 -7 -7 -7 -7 -6 -8 7 8 8 9 10 11 10 8 7 7 7 7 7 7
9 7 6 8 12 12 9 7 9 10 8 2 -6 -7 -14 -12 -14 -12 -10 -8 -7 -7 -8 -10 -10 -10 -9 -5 4 6 4 3 8 10 9 8 3 3 5 4 3 4 6
10 8 9 9 11 9 8 9 10 9 3 -4 -7 -13 -12 -12 -11 -8 -6 -7 -8 -9 -10 -8 -7 -7 -8 -1 2 0 1 4 8 8 7 4 -3 -4 -0 1 2 3 3
9 8 9 9 9 9 10 11 9 3 -3 -5 -10 -12 -11 -10 -7 -6 -8 -8 -9 -9 -7 -6 -5 -3 -2 -3 -1 -0 2 4 5 5 3 2 -2 -5 -6 -5 -2 0 2
10 9 9 9 10 10 11 10 4 -3 -4 -8 -12 -9 -9 -7 -5 -8 -8 -9 -8 -6 -5 -4 -3 -2 -2 -2 -2 -0 3 4 4 4 4 4 2 -7 -6 -3 -3 -4 -3
12 11 11 11 11 11 10 5 -2 -4 -6 -11 -8 -8 -6 -5 -7 -8 -8 -7 -6 -4 -3 -3 -2 -2 -2 -1 -1 -1 1 3 3 4 5 3 1 -1 -3 -6 -5 -2 -2
13 12 11 10 9 10 6 0 -3 -5 -9 -9 -7 -5 -4 -7 -7 -7 -6 -5 -3 -3 -2 -2 -2 -2 -0 1 1 1 0 0 2 2 1 1 1 -0 -1 -2 -5 -5 -2
12 11 10 8 8 8 2 -2 -4 -6 -8 -6 -3 -4 -5 -6 -6 -6 -4 -3 -2 -2 -2 -1 -1 0 3 3 3 3 2 2 2 2 2 1 1 1 1 -0 -5 -5 -2
11 8 7 9 9 5 0 -3 -5 -8 -4 -2 -4 -3 -4 -5 -5 -3 -4 -3 -2 -1 -0 0 1 3 4 4 4 4 4 3 2 2 2 2 2 2 1 -1 -8 -8 -5
9 6 10 10 5 1 -4 -4 -6 -2 0 -2 -2 3 3 5 6 3 -1 -2 -1 0 3 6 5 5 5 4 4 4 4 3 1 2 2 2 2 1 0 -2 -7 -10 -10
9 10 9 4 2 -2 -4 -4 -1 1 0 2 8 9 7 8 7 6 7 5 6 6 7 6 6 6 6 5 5 4 3 2 -0 -2 -0 1 0 -0 -1 -3 -5 -8 -11
9 9 9 9 5 -3 -4 -1 3 3 4 6 10 10 9 8 7 8 8 8 7 7 7 6 6 5 5 5 3 2 2 0 -0 -3 -2 -1 -1 -2 -2 -3 -4 -6 -8
11 10 11 9 8 4 -3 4 7 8 7 8 5 10 10 9 8 9 8 8 7 7 7 6 6 5 5 2 -0 -1 -2 -2 -3 -5 -2 -3 -4 -5 -3 -3 -3 -4 -4
11 10 9 8 6 6 8 9 10 8 8 8 7 7 8 6 9 9 8 8 7 7 6 5 5 3 0 -2 -3 -3 -3 -3 -4 -8 -5 -5 -6 -7 -3 -3 -3 -3 -2
9 8 9 7 6 8 9 9 9 9 8 9 7 7 7 8 8 7 7 7 7 6 6 4 1 -1 -3 -7 -10 -12 -7 -7 -7 -9 -7 -7 -7 -5 -2 -3 -4 -4 -1
8 6 4 7 7 10 9 8 9 9 7 5 7 8 8 8 7 7 8 8 7 6 3 -0 -1 -4 -9 -14 -13 -9 -6 -6 -6 -11 -6 -7 -3 -2 -3 -4 -4 -4 -3
7 5 1 7 8 9 9 8 8 8 7 6 5 5 4 6 6 7 8 7 4 1 -1 -1 -3 -8 -12 -10 -12 -9 -8 -7 -9 -10 -7 -6 -3 -2 -4 -5 -5 -5 -4
6 4 7 5 6 8 8 8 8 7 5 3 3 3 4 5 5 5 4 2 0 -0 -1 -2 -7 -13 -8 -6 -5 -5 -6 -7 -6 -6 -7 -5 -4 -4 -5 -5 -5 -6 -5
8 7 6 8 10 10 8 8 8 7 6 5 4 5 5 4 1 1 0 -0 -0 -0 -1 -4 -8 -5 -4 -5 -3 -4 -5 -7 -6 -6 -5 -5 -5 -6 -6 -6 -6 -6 -7
9 9 9 8 9 9 7 6 6 8 7 6 6 5 5 1 1 1 0 0 -0 -0 -2 -7 -5 -4 -5 -3 -3 -4 -4 -5 -4 -7 -5 -6 -6 -7 -7 -7 -7 -7 -8
9 9 10 9 7 6 6 7 8 7 5 5 6 5 1 -0 1 1 0 0 0 -1 -4 -7 -6 -7 -5 -2 -2 -3 -4 -5 -4 -5 -6 -7 -8 -8 -10 -8 -8 -7 -8
10 10 8 9 9 8 8 9 6 6 6 5 3 0 -0 1 2 1 0 0 -1 -3 -4 -4 -4 -5 -2 -3 -3 -1 -2 -3 -3 -3 -3 -5 -7 -8 -10 -9 -8 -8 -9
10 11 10 10 9 8 8 8 7 6 1 -0 1 2 2 3 3 1 0 -2 -2 -2 -1 -2 -2 -2 -3 -2 -2 -3 -2 -2 -2 -2 -3 -4 -6 -7 -9 -8 -9 -11 -9
10 11 11 10 10 9 9 8 5 3 3 3 3 3 4 3 2 0 -2 -1 -1 -1 -1 -1 -1 -8 -8 -7 -7 -6 -3 -3 -3 -1 -3 -3 -5 -5 -6 -7 -9 -10 -8
9 10 10 9 8 9 9 6 5 4 4 4 4 4 4 2 1 0 -1 -2 -2 -2 -1 -3 -17 -14 -8 -7 -6 -5 -3 -2 -2 -2 -2 -3 -4 -5 -5 -7 -8 -9 -12

GFSSE_850_dewp_048.txt.gz
Dewpoint
9 13 14 12 12 11 11 9 5 7 8 6 -0 -9 -12 -15 -17 -18 -13 -12 -9 -7 -7 -6 -6 -8 -3 6 7 8 9 9 11 10 9 6 6 7 7 7 7 7 7
8 11 12 12 12 12 11 7 7 9 8 2 -7 -11 -17 -16 -14 -12 -10 -7 -7 -8 -10 -10 -7 -5 4 2 2 4 6 8 9 8 5 -1 -2 4 4 3 4 5 5
9 12 13 12 12 12 9 6 9 9 5 -6 -9 -15 -14 -13 -11 -8 -7 -7 -10 -10 -10 -9 -6 3 2 3 1 1 8 8 7 5 1 -0 -6 -5 -2 1 2 3 3
8 12 13 13 12 11 7 9 10 7 -3 -8 -14 -13 -13 -10 -7 -7 -8 -10 -9 -7 -6 -5 -4 1 0 3 3 4 4 5 5 2 2 2 -0 -7 -6 -6 -3 -0 2
12 14 14 12 12 8 9 10 9 -0 -6 -11 -13 -12 -10 -7 -8 -8 -9 -9 -6 -5 -3 -2 -2 -3 -2 2 3 3 4 5 5 4 4 3 1 -2 -5 -6 -4 -5 -4
12 12 12 11 8 9 11 10 2 -5 -8 -14 -11 -9 -7 -8 -9 -9 -8 -6 -5 -4 -3 -2 -2 -2 -2 -2 2 3 3 3 5 3 2 1 1 0 -1 -3 -6 -6 -3
12 12 11 9 9 11 10 5 -2 -6 -12 -10 -9 -6 -7 -8 -8 -7 -6 -4 -4 -3 -3 -2 -2 -1 0 -0 -0 1 1 1 2 2 1 1 1 1 0 -1 -4 -5 -4
13 12 10 11 11 10 5 -1 -4 -8 -11 -8 -6 -5 -8 -8 -7 -6 -4 -3 -3 -3 -2 -2 -1 0 2 1 1 2 2 2 1 1 2 2 2 2 1 -0 -3 -7 -4
12 12 12 11 9 5 1 -3 -6 -10 -7 -5 -5 -7 -7 -7 -6 -5 -4 -3 -2 -2 -2 -1 -0 2 3 3 3 3 3 3 2 2 2 2 2 2 1 -1 -3 -9 -7
11 10 9 6 3 4 -0 -4 -7 -6 -4 -4 -5 -7 -7 -6 -5 -5 -3 -2 -2 -1 0 2 3 4 4 4 4 4 4 3 1 0 1 2 2 1 -0 -1 -3 -6 -10
10 8 7 6 5 4 -2 -4 -6 -2 -3 -4 -5 -6 -6 -5 -3 -3 -3 -1 1 1 4 4 5 5 5 5 5 4 2 0 -1 -2 -3 -0 -0 -1 -1 -2 -3 -6 -9
9 7 6 7 7 0 -3 -5 -3 -2 -3 -2 -1 -2 -1 3 3 7 6 7 6 6 6 5 5 5 5 5 5 2 0 -1 -2 -3 -6 -2 -1 -2 -4 -6 -4 -4 -6
8 8 9 6 5 -0 -3 -3 1 1 5 4 6 7 5 7 7 8 8 7 7 6 6 6 6 5 5 5 2 -1 -2 -3 -3 -4 -5 -2 -4 -5 -3 -6 -2 -3 -4
9 10 7 7 2 -1 -3 -0 0 1 7 7 8 9 8 9 9 9 8 7 7 6 6 6 6 5 5 0 -2 -4 -7 -5 -4 -5 -7 -5 -6 -6 -6 -3 -2 -1 -1
8 8 8 6 -1 -2 -1 3 5 7 4 3 9 9 10 9 8 9 8 8 7 7 6 6 5 3 -1 -3 -9 -11 -12 -9 -8 -8 -10 -8 -7 -7 -4 -2 -1 0 0
9 9 11 8 4 -2 5 7 8 7 5 5 5 8 9 8 9 8 8 8 7 7 6 6 1 -1 -5 -12 -16 -15 -12 -9 -7 -7 -10 -7 -6 -3 -2 -3 -3 -2 -2
10 10 9 6 6 7 8 9 9 7 9 9 9 7 7 8 9 8 8 8 7 7 6 0 -1 -4 -12 -14 -13 -12 -11 -11 -10 -11 -11 -7 -3 -2 -3 -4 -4 -4 -5
10 9 8 7 6 7 8 8 9 9 9 9 8 9 8 7 6 7 8 8 7 5 -0 -1 -2 -8 -11 -9 -10 -9 -8 -8 -11 -6 -7 -6 -4 -5 -5 -5 -5 -5 -5
7 7 8 7 6 9 9 10 10 9 9 8 8 6 4 5 6 7 8 5 1 -1 -1 -1 -4 -10 -10 -9 -9 -7 -6 -6 -10 -6 -6 -5 -5 -6 -5 -6 -6 -6 -7
6 2 -4 3 6 10 10 9 9 9 8 6 4 4 5 5 5 4 2 -0 -1 -0 -0 -1 -7 -10 -8 -10 -7 -4 -5 -8 -6 -9 -8 -6 -5 -6 -7 -7 -7 -7 -8
7 4 -3 0 6 8 9 8 8 7 7 6 6 5 5 5 2 -0 -1 -1 -0 0 -1 -4 -7 -6 -11 -12 -11 -12 -13 -6 -6 -6 -5 -6 -6 -6 -8 -8 -10 -8 -8
6 7 5 4 4 6 7 6 7 7 7 8 7 6 5 3 0 -1 -0 -0 0 -0 -3 -4 -5 -7 -10 -9 -10 -10 -5 -6 -5 -4 -4 -4 -4 -5 -6 -8 -8 -8 -8
7 7 8 8 7 7 9 8 7 7 7 6 6 5 4 1 0 0 1 1 -1 -2 -3 -4 -5 -5 -3 -3 -6 -4 -4 -3 -4 -3 -2 -3 -5 -4 -5 -7 -7 -7 -8
7 8 9 9 9 9 8 7 7 8 5 5 5 4 1 0 2 3 2 0 -1 -2 -3 -4 -3 -2 -2 -7 -13 -11 -9 -7 -3 -2 -2 -2 -3 -4 -6 -7 -6 -7 -9
7 8 9 10 10 9 8 8 8 7 5 4 1 2 3 3 3 2 1 -1 -1 -2 -2 -2 -2 -2 -6 -18 -13 -10 -8 -5 -3 -1 -2 -3 -3 -4 -6 -7 -7 -7 -9
9 9 9 10 10 9 9 8 7 5 3 2 3 3 4 4 3 2 1 1 -1 -2 -2 -2 -5 -15 -23 -20 -16 -11 -7 -4 -4 -3 -4 -2 -2 -4 -5 -6 -6 -8 -10

GFSSE_850_dewp_054.txt.gz
Dewpoint
12 14 13 9 8 7 7 6 5 6 5 1 -7 -10 -14 -18 -16 -12 -10 -8 -8 -6 -2 1 4 6 7 7 8 7 1 0 1 -0 -4 -6 -5 -2 -1 1 2 4 5
13 13 13 10 9 8 8 7 5 6 3 -7 -12 -16 -18 -13 -10 -8 -8 -7 -5 1 4 3 2 5 6 8 6 3 2 3 3 3 1 -4 -6 -6 -6 -4 -1 0 1
13 14 13 10 10 9 8 6 6 5 -4 -13 -16 -17 -12 -9 -9 -10 -8 -4 1 2 2 2 2 3 4 3 3 3 3 3 3 2 1 1 -0 -3 -6 -6 -6 -5 -2
13 13 12 11 10 9 8 6 7 1 -11 -16 -16 -11 -8 -9 -11 -10 -6 -1 1 1 2 2 1 1 2 3 4 4 3 2 1 1 1 -0 -1 -1 -3 -5 -7 -6 -6
13 14 12 11 11 9 7 8 5 -8 -15 -15 -11 -8 -9 -10 -9 -7 -3 -0 -0 -0 0 2 2 2 3 3 3 3 2 1 1 -0 -0 -0 -1 -2 -3 -5 -7 -7 -6
12 14 13 12 11 7 8 7 -3 -11 -14 -12 -7 -8 -10 -8 -6 -4 -2 -2 -2 -2 -2 -1 -0 0 0 0 1 1 1 1 1 -0 -1 -0 -1 -2 -4 -5 -6 -9 -7
14 13 13 12 10 8 9 2 -8 -14 -12 -7 -7 -8 -8 -6 -4 -3 -2 -2 -2 -2 -0 1 1 1 1 2 2 2 2 2 1 -1 -1 -2 -1 -1 -4 -6 -7 -8 -10
13 13 13 12 11 10 4 -5 -10 -13 -10 -6 -8 -8 -6 -4 -3 -3 -3 -3 -2 -1 0 2 2 3 3 3 3 3 2 1 -1 -2 -4 -5 -3 -4 -6 -9 -11 -10 -10
13 12 12 12 11 6 -3 -7 -11 -9 -6 -7 -7 -7 -5 -3 -3 -3 -3 -2 -2 -2 -0 2 3 4 4 4 4 3 1 -1 -3 -5 -8 -8 -3 -0 -7 -11 -12 -14 -13
10 10 11 9 5 3 -5 -9 -7 -5 -6 -7 -7 -5 -3 -2 -2 -2 -2 -2 -2 -1 1 3 4 4 5 5 4 2 -1 -4 -6 -7 -10 -9 -3 1 -6 -9 -10 -12 -10
8 7 8 8 5 2 -2 -5 -6 -6 -5 -6 -6 -4 -2 -2 -1 -1 -1 -1 -1 2 3 4 4 5 5 5 4 -0 -3 -7 -9 -12 -13 -10 -4 1 1 -6 -8 -9 -8
8 9 10 6 4 3 2 -5 -7 -4 -5 -6 -5 -3 -2 -2 -1 -1 -2 -1 1 3 4 5 5 5 5 4 1 -2 -6 -10 -14 -15 -12 -9 -6 2 2 -1 -4 -5 -5
11 10 7 5 4 2 -3 -6 -7 -2 -4 -3 -2 -1 -2 -1 -1 0 2 4 4 5 5 6 6 6 5 2 -2 -7 -12 -17 -18 -12 -11 -10 -10 -3 1 -0 0 1 -2
8 7 6 4 4 -1 -6 -6 -3 -2 -4 -2 2 6 6 6 6 6 6 6 6 6 6 6 6 6 4 -1 -7 -14 -18 -19 -18 -16 -16 -15 -13 -8 3 2 3 2 1
6 5 6 2 -2 -5 -5 -5 -2 -1 2 6 8 8 8 7 7 7 7 7 7 7 6 6 6 4 -1 -5 -13 -17 -19 -19 -19 -19 -21 -20 -13 -7 2 2 2 3 1
7 6 6 1 0 -0 -1 -2 0 -1 7 8 8 8 8 8 8 8 8 7 7 7 6 6 5 -0 -3 -9 -15 -18 -20 -19 -18 -22 -19 -13 -8 -5 -2 -1 -1 1 0
5 5 3 3 6 2 -1 1 2 5 7 9 9 10 9 8 8 8 8 8 7 7 7 6 1 -2 -5 -11 -16 -21 -16 -16 -20 -14 -15 -10 -5 -3 -2 -3 -4 -4 -4
5 7 8 5 5 1 -0 2 3 6 8 7 8 8 8 8 8 8 9 8 7 7 6 3 -1 -2 -7 -13 -19 -18 -16 -18 -13 -11 -13 -7 -5 -4 -4 -5 -6 -6 -7
7 8 5 6 4 0 -0 3 3 4 7 8 8 8 9 8 9 9 9 8 8 7 4 -1 -1 -4 -10 -14 -13 -12 -13 -13 -10 -10 -10 -7 -11 -9 -6 -6 -6 -6 -7
6 8 7 7 6 2 -0 5 7 9 9 9 9 9 9 9 8 7 8 8 8 5 -1 -1 -2 -6 -9 -8 -8 -7 -12 -14 -12 -9 -8 -9 -14 -11 -9 -8 -7 -6 -7
7 8 7 9 8 4 -0 7 9 9 9 10 9 9 9 7 5 6 8 8 5 -1 -1 -1 -3 -5 -4 -4 -5 -7 -11 -15 -11 -10 -11 -13 -10 -8 -8 -5 -5 -5 -7
6 7 9 9 9 6 4 5 8 8 9 9 10 9 6 5 6 7 6 3 -0 -0 -0 -1 -2 -3 -2 -2 -4 -8 -15 -16 -11 -11 -9 -10 -7 -6 -9 -6 -4 -5 -5
7 6 7 8 7 7 7 6 7 9 9 9 9 8 5 6 6 5 3 0 0 1 -0 -1 -1 -2 -2 -3 -4 -13 -17 -16 -15 -13 -14 -9 -6 -6 -7 -6 -4 -4 -4
7 7 8 8 8 7 7 6 6 8 8 8 9 8 6 7 6 3 1 1 1 1 -1 -1 -1 -2 -2 -4 -8 -20 -22 -15 -11 -7 -7 -6 -6 -5 -5 -8 -6 -5 -4
8 7 8 8 8 7 7 6 6 7 8 9 8 7 7 6 4 3 1 1 1 -0 -1 -1 -1 -3 -6 -11 -20 -21 -17 -15 -14 -8 -4 -4 -3 -3 -6 -9 -7 -4 -5
8 8 8 7 7 6 5 4 6 8 9 9 8 7 7 5 4 3 2 1 1 -0 -0 1 1 -3 -2 -3 -20 -17 -14 -14 -13 -9 -6 -4 -3 -6 -7 -7 -7 -5 -6

GFSSE_850_dewp_060.txt.gz
Dewpoint
15 13 10 11 12 12 12 12 11 11 11 11 8 6 1 -8 -18 -16 -13 -11 -7 -1 4 6 8 7 3 2 1 0 1 0 -1 -3 -6 -7 -8 -7 -5 -2 8 5 2
15 13 10 11 12 12 12 12 11 11 10 7 5 -2 -11 -18 -14 -11 -9 -5 1 4 4 5 5 4 -0 -0 -0 -1 -1 -0 -1 -1 6 4 -5 -7 -7 -7 -5 -2 -1
14 14 10 9 12 12 12 12 11 8 6 2 -6 -14 -18 -13 -10 -8 -3 1 5 5 4 3 -0 -2 -1 -0 -1 -1 -2 -3 -2 1 6 7 6 -6 -7 -8 -6 -5 -6
14 14 13 8 9 11 11 8 6 6 -1 -9 -17 -17 -12 -9 -8 -5 0 2 3 3 1 -1 -1 -1 0 -0 -2 -2 -2 -2 -2 6 6 6 7 -6 -7 -8 -7 -4 2
14 14 11 8 6 6 6 7 5 -3 -11 -17 -16 -11 -9 -8 -6 -2 0 1 1 -0 -1 0 1 1 -0 -1 -1 -1 -1 -1 4 6 6 7 6 -7 -8 -7 -6 -8 -6
14 14 12 8 7 7 7 5 -3 -12 -17 -16 -12 -9 -9 -7 -2 -1 -0 -1 -1 -0 0 1 1 -0 -0 -0 -1 -1 -2 -3 5 4 6 7 7 -9 -12 -12 -11 -10 -10
14 14 12 9 9 8 5 -3 -11 -16 -14 -10 -9 -10 -8 -3 -1 -0 -1 -1 -1 -0 0 -0 1 1 2 1 0 -2 -4 -3 3 3 5 6 4 -10 -14 -16 -17 -15 -14
11 12 13 12 10 10 6 2 1 -6 -7 -8 -9 -7 -4 -1 -1 -2 -2 -1 -0 0 1 2 3 3 3 2 -0 -4 -7 -1 3 3 5 6 -1 -6 -14 -15 -16 -14 -13
11 12 13 12 11 9 6 5 4 4 -4 -7 -7 -3 -3 -2 -2 -2 -1 0 1 2 3 3 4 4 3 1 -3 -5 -8 -9 2 3 3 5 2 2 -8 -12 -13 -12 -10
13 13 12 11 9 7 6 4 3 3 -5 -7 -2 -2 -2 -2 -2 -1 -0 1 2 3 3 4 5 5 3 -1 -4 -7 -10 -4 0 1 3 4 5 5 2 -9 -10 -7 -7
9 9 11 10 8 7 8 7 3 -0 -6 -3 -2 -2 -1 -1 -0 2 3 1 2 3 4 5 5 5 4 -2 -5 -9 -6 -2 -2 -1 1 -9 3 5 4 -1 -7 -6 -7
11 9 8 8 8 8 8 5 2 0 -2 -2 -2 -1 2 -0 6 3 1 2 4 4 5 5 5 5 3 -1 -5 -7 -7 -11 -7 -6 -6 -16 -6 4 3 3 2 -4 -5
10 10 10 9 9 8 5 3 1 -3 -1 -2 -2 -2 -2 5 0 1 2 4 4 5 5 5 6 6 4 -3 -7 -11 -13 -8 -7 -8 -14 -22 -18 4 1 3 0 1 0
10 10 9 8 6 4 1 2 2 2 -2 -1 -1 -2 -1 3 2 5 6 4 5 5 6 6 6 6 3 -4 -8 -11 -15 -12 -10 -8 -7 -21 -15 3 3 3 2 0 -0
8 8 7 6 2 1 4 7 6 0 -2 4 -1 -1 -1 -1 -1 1 4 5 6 6 6 6 6 5 1 -4 -6 -12 -16 -19 -17 -4 1 -17 -9 4 2 -0 -1 -2 -1
8 6 5 6 6 7 8 8 5 6 6 -2 -2 -2 -2 -1 0 4 6 6 6 6 6 6 6 5 -2 -4 -6 -14 -18 -17 -19 -9 -1 -5 -8 -7 -6 -5 -3 -2 -2
7 7 7 7 7 8 7 6 6 -1 -2 4 -1 -2 1 4 6 7 7 7 7 7 7 7 6 5 -2 -4 -9 -13 -11 -17 -17 -16 -3 -1 -1 -7 -8 -6 -4 -4 -5
7 8 8 7 8 8 8 5 7 3 -2 2 2 5 7 8 7 8 8 8 8 7 7 6 5 1 -2 -4 -6 -5 -5 -10 -18 -17 -9 -3 -3 -8 -3 -7 -10 -10 -10
7 7 7 6 6 8 4 -0 -1 -0 0 7 9 9 8 8 8 7 7 8 8 7 7 6 5 -1 -1 -2 -3 -2 -3 -4 -7 -7 -5 -4 -8 -9 -9 -6 -14 -16 -15
7 8 8 7 8 5 5 -0 -2 2 4 8 8 9 9 9 7 7 7 8 8 7 6 6 3 -1 -1 -0 -2 -1 -1 -2 -3 -4 -4 -4 -5 -5 -4 -5 -6 -6 -6
7 8 9 9 9 10 9 4 6 6 7 7 9 8 8 6 7 7 8 8 8 6 6 6 1 -1 1 -1 0 -1 -1 -1 -1 -3 -3 -4 -4 -4 -3 -4 -4 -6 -6
8 8 9 10 10 8 8 6 5 3 7 8 8 6 7 8 7 8 9 8 7 5 7 5 -1 1 1 -0 -0 -1 -1 -3 -2 -2 -2 -4 -3 -4 -4 -3 -2 -3 -3
9 9 9 10 10 9 10 8 7 7 8 6 7 5 7 7 8 9 9 8 7 7 6 1 -0 0 2 1 -1 -2 -2 -2 -4 -5 -4 -4 -4 -4 -3 -3 -3 -4 -4
10 10 9 10 10 10 9 9 8 6 6 7 7 6 7 7 8 9 7 7 7 6 4 0 0 1 0 -0 -1 1 -1 -3 -5 -6 -7 -5 -2 -2 -3 -3 -5 -5 -4
10 10 10 10 10 10 10 10 9 7 6 8 9 7 8 8 9 8 7 7 7 6 2 -0 0 -0 -0 -0 -0 -2 -2 -3 -4 -5 -8 -10 -7 -6 -6 -5 -5 -6 -5
10 10 8 8 10 10 9 8 9 10 9 9 7 7 8 9 9 8 7 7 6 3 1 0 0 0 -0 2 3 2 -8 -7 -8 -8 -8 -8 -7 -7 -6 -5 -6 -7 -6